Terminal Aerodrome Forecast
Issued by NWS Memphis, TN

Home | Current Version | Previous Version | Text Only | Print | Product List | Glossary On
Versions: 1 2 3 4 5 6 7 8 9 10 11 12 13 14 15 16 17 18 19 20 21 22 23 24 25 26 27
000
FTUS44 KMEG 232336
TAFMEM
TAF
KMEM 232336Z 2400/2424 15009KT P6SM SCT250
     FM240900 15012KT P6SM VCSH BKN050 OVC150
     FM241400 15014G22KT P6SM SCT050 BKN250=

USA.gov is the U.S. government's official web portal to all federal, state and local government web resources and services.